CAPE
8 16 6 858 1182 1253 1328 1081 831 944 981 705 506 264 144 220 303 268 245 349 430 174 353 245 283 162 58 36 106 343 242 160 0 3 0 2 3 31 59 100 122 102 0
10 12 17 8 17 354 387 401 567 462 619 632 503 157 122 237 178 261 345 298 367 230 172 86 107 30 55 49 107 46 5 6 0 0 3 6 11 15 47 103 151 1 0
9 14 9 6 10 4 78 185 242 348 377 212 211 168 134 304 278 138 261 217 271 205 129 84 99 40 35 16 18 1 1 0 0 0 0 2 8 51 68 3 0 1 2
4 8 10 18 12 9 4 2 54 87 166 162 221 98 58 24 46 11 14 10 22 150 250 122 134 77 37 3 2 1 1 1 1 0 0 2 9 68 1 1 5 4 3
4 1 8 7 4 3 2 3 3 3 17 11 0 0 0 0 0 0 0 14 15 7 0 0 0 0 1 1 0 2 1 1 1 2 4 8 33 49 3 5 4 6 10
4 7 4 4 8 7 2 1 2 2 1 0 1 0 0 0 0 1 0 1 0 0 1 1 0 1 0 1 1 0 0 1 1 2 5 5 2 7 8 5 2 3 2
4 6 2 1 3 4 3 0 0 1 1 3 2 1 1 2 0 0 0 0 0 1 1 1 1 1 1 0 0 0 0 1 0 0 1 0 0 0 0 0 0 0 1
5 4 5 4 3 2 4 2 0 0 0 0 1 2 2 3 0 0 0 1 2 2 2 3 3 2 0 1 0 0 0 0 0 0 0 0 0 0 0 0 0 0 0
12 11 7 5 3 2 2 2 0 0 0 2 1 1 4 5 2 0 0 1 1 2 2 2 2 2 1 0 0 0 0 0 1 2 1 1 1 1 0 0 0 0 0
12 11 12 13 7 5 5 2 3 2 2 1 0 3 5 5 5 1 1 1 2 3 3 4 3 2 1 0 0 0 0 2 0 0 0 0 0 0 0 0 0 0 1
15 14 13 13 12 11 12 9 9 6 2 1 0 1 2 3 6 4 2 2 2 4 6 5 9 3 3 3 1 1 0 1 1 1 1 0 0 0 0 0 0 0 0
14 14 14 14 15 14 11 12 8 7 9 8 3 2 1 2 5 6 6 4 2 3 6 9 10 9 6 4 2 4 2 0 1 0 0 1 1 1 1 1 1 0 1
13 13 15 17 15 15 13 12 19 12 16 15 15 9 6 11 10 8 8 5 4 1 1 6 7 5 4 4 4 1 0 0 0 0 2 4 5 8 6 1 0 0 0
5 5 6 14 15 19 13 15 11 15 18 14 15 17 14 13 11 15 14 11 5 7 5 7 4 3 3 2 2 5 9 5 1 2 2 4 7 7 8 5 5 0 0
0 5 6 5 6 9 11 13 21 20 12 19 19 16 12 13 19 11 9 11 10 7 11 12 10 10 9 8 9 10 10 8 8 11 7 6 3 2 2 2 1 0 0
0 0 2 7 8 8 8 10 5 6 6 5 4 11 12 7 2 2 1 2 2 1 9 11 11 11 11 11 9 11 12 9 10 8 8 6 4 2 2 2 0 0 0
7 4 3 2 5 8 9 9 12 4 0 2 6 5 3 2 1 1 0 0 0 0 8 10 12 12 8 4 3 3 5 5 3 5 5 6 6 4 2 1 1 0 0
16 7 19 18 17 17 17 19 15 12 10 12 2 3 3 2 1 0 0 0 1 1 4 7 7 5 2 0 0 1 3 5 3 3 5 5 4 2 2 1 0 0 0
13 19 20 21 16 12 16 16 14 13 12 12 12 4 2 0 1 1 1 6 3 2 0 1 3 1 1 1 6 8 7 8 8 7 6 4 6 2 0 0 0 0 0
9 1 5 14 11 11 10 10 10 12 10 10 10 10 7 7 13 13 16 15 10 5 3 2 2 3 3 4 8 8 8 7 6 4 10 10 9 4 2 1 2 0 0
16 11 2 11 11 11 13 12 10 11 11 9 10 3 0 6 10 13 11 17 13 10 11 6 7 9 8 5 2 4 2 3 3 3 4 5 6 4 3 4 2 0 0
9 8 8 10 9 15 11 10 15 12 10 10 12 4 0 13 11 10 11 17 16 12 8 11 8 7 6 4 3 4 2 4 3 4 4 2 2 3 3 2 2 1 0
6 10 10 7 15 10 17 15 17 16 14 14 14 15 15 20 15 12 14 15 12 13 13 12 10 6 6 7 6 4 2 1 1 3 3 2 2 3 3 3 1 1 1
7 12 7 10 16 16 20 26 25 1 10 16 21 18 15 18 17 11 10 12 10 11 10 7 5 3 1 5 7 3 1 2 0 0 0 2 1 1 4 2 1 0 0
14 16 15 18 21 24 21 21 25 29 28 29 29 27 18 14 10 11 11 9 4 8 4 3 5 2 1 0 2 2 0 0 0 0 0 1 1 0 1 1 1 0 0
9 10 15 17 18 18 20 22 21 23 27 29 33 28 26 25 19 19 11 7 7 6 5 7 5 2 1 3 1 0 0 0 0 0 1 1 1 2 2 1 0 3 1
CIN
-0 -0 -0 -10 -0 -5 -14 -30 -31 -15 -36 -69 -82 -89 -66 -5 -1 -37 -64 -7 -0 -13 -1 -0 -0 -2 -33 -28 -0 -3 -10 -0 -0 -0 -0 -0 -0 -3 -6 -3 -6 -6 -0
-0 -0 -0 -0 -46 -41 -52 -58 -29 -35 -29 -22 -78 -123 -94 -2 -14 -18 -10 -24 -14 -21 -21 -35 -21 -64 -50 -22 -4 -2 -33 -1 -1 -0 -0 -0 -0 -10 -8 -5 -1 -1 -0
-0 -0 -0 -0 -0 -0 -102 -15 -29 -2 -36 -108 -98 -218 -173 -1 -9 -50 -29 -48 -32 -33 -40 -41 -42 -64 -44 -12 -8 -0 -0 -0 -0 -0 -0 -1 -8 -9 -6 -20 -0 -0 -0
-0 -0 -0 -0 -0 -0 -0 -0 -35 -34 -61 -85 -56 -200 -145 -89 -66 -54 -117 -52 -44 -38 -15 -45 -39 -23 -7 -18 -2 -0 -0 -0 -0 -0 -0 -0 -1 -0 -0 -0 -0 -0 -0
-0 -0 -0 -0 -0 -0 -0 -0 -0 -7 -13 -21 -0 -0 -0 -0 -0 -0 -0 -23 -27 -1 -0 -0 -0 -0 -0 -0 -0 -0 -0 -0 -0 -1 -0 -1 -1 -0 -0 -0 -0 -0 -0
-0 -0 -0 -0 -0 -0 -0 -0 -0 -0 -0 -0 -0 -0 -0 -0 -0 -0 -0 -0 -0 -0 -0 -0 -0 -0 -0 -0 -0 -0 -0 -0 -0 -0 -1 -0 -0 -6 -8 -0 -0 -0 -0
-0 -0 -0 -0 -0 -0 -0 -0 -0 -0 -0 -0 -0 -0 -0 -0 -0 -0 -0 -0 -0 -0 -0 -0 -0 -0 -0 -0 -0 -0 -0 -0 -0 -0 -0 -0 -0 -0 -0 -0 -0 -0 -0
-0 -0 -0 -0 -0 -0 -0 -0 -0 -0 -0 -0 -0 -0 -0 -0 -0 -0 -0 -0 -0 -0 -0 -0 -0 -0 -0 -0 -0 -0 -0 -0 -0 -0 -0 -0 -0 -0 -0 -0 -0 -0 -0
-0 -0 -0 -0 -0 -0 -0 -0 -0 -0 -0 -0 -0 -0 -0 -0 -0 -0 -0 -0 -0 -0 -0 -0 -0 -0 -0 -0 -0 -0 -0 -0 -0 -0 -0 -0 -0 -0 -0 -0 -0 -0 -0
-0 -0 -0 -0 -0 -0 -0 -0 -0 -0 -0 -0 -0 -0 -0 -0 -0 -0 -0 -0 -0 -0 -0 -0 -0 -0 -0 -0 -0 -0 -0 -0 -0 -0 -0 -0 -0 -0 -0 -0 -0 -0 -0
-0 -0 -0 -0 -0 -0 -0 -0 -0 -0 -0 -0 -0 -0 -0 -0 -0 -0 -0 -0 -0 -0 -0 -0 -0 -0 -0 -0 -0 -0 -0 -0 -0 -0 -0 -0 -0 -0 -0 -0 -0 -0 -0
-0 -0 -0 -0 -0 -0 -0 -0 -0 -0 -0 -0 -0 -0 -0 -0 -0 -0 -0 -0 -0 -0 -0 -0 -0 -0 -0 -0 -0 -0 -0 -0 -0 -0 -0 -0 -0 -0 -0 -0 -0 -0 -0
-0 -0 -0 -0 -0 -0 -0 -0 -0 -0 -0 -0 -0 -0 -0 -0 -0 -0 -0 -0 -0 -0 -0 -0 -0 -0 -0 -0 -0 -0 -0 -0 -0 -0 -0 -0 -0 -0 -0 -0 -0 -0 -0
-0 -0 -0 -0 -0 -0 -0 -0 -0 -0 -0 -0 -0 -0 -0 -0 -0 -0 -0 -0 -0 -0 -0 -0 -0 -0 -0 -0 -0 -0 -0 -0 -0 -0 -0 -0 -0 -0 -0 -0 -0 -0 -0
-0 -0 -0 -0 -0 -0 -0 -0 -0 -0 -0 -0 -0 -0 -0 -0 -0 -0 -0 -0 -0 -0 -0 -0 -0 -0 -0 -0 -0 -0 -0 -0 -0 -0 -0 -0 -0 -0 -0 -0 -0 -0 -0
-0 -0 -0 -0 -0 -0 -0 -0 -0 -0 -0 -0 -0 -0 -0 -0 -0 -0 -0 -0 -0 -0 -0 -0 -0 -0 -0 -0 -0 -0 -0 -0 -0 -0 -0 -0 -0 -0 -0 -0 -0 -0 -0
-0 -0 -0 -0 -0 -0 -0 -0 -0 -0 -0 -0 -0 -0 -0 -0 -0 -0 -0 -0 -0 -0 -0 -0 -0 -0 -0 -0 -0 -0 -0 -0 -0 -0 -0 -0 -0 -0 -0 -0 -0 -0 -0
-0 -0 -0 -0 -0 -0 -0 -0 -0 -0 -0 -0 -0 -0 -0 -0 -0 -0 -0 -0 -0 -0 -0 -0 -0 -0 -0 -0 -0 -0 -0 -0 -0 -0 -0 -0 -0 -0 -0 -0 -0 -0 -0
-0 -0 -0 -0 -0 -0 -0 -0 -0 -0 -0 -0 -0 -0 -0 -0 -0 -0 -0 -0 -0 -0 -0 -0 -0 -0 -0 -0 -0 -0 -0 -0 -0 -0 -0 -0 -0 -0 -0 -0 -0 -0 -0
-0 -0 -0 -0 -0 -0 -0 -0 -0 -0 -0 -0 -0 -0 -0 -0 -0 -0 -0 -0 -0 -0 -0 -0 -0 -0 -0 -0 -0 -0 -0 -0 -0 -0 -0 -0 -0 -0 -0 -0 -0 -0 -0
-0 -0 -0 -0 -0 -0 -0 -0 -0 -0 -0 -0 -0 -0 -0 -0 -0 -0 -0 -0 -0 -0 -0 -0 -0 -0 -0 -0 -0 -0 -0 -0 -0 -0 -0 -0 -0 -0 -0 -0 -0 -0 -0
-0 -0 -0 -0 -0 -0 -0 -0 -0 -0 -0 -0 -0 -0 -0 -0 -0 -0 -0 -0 -0 -0 -0 -0 -0 -0 -0 -0 -0 -0 -0 -0 -0 -0 -0 -0 -0 -0 -0 -0 -0 -0 -0
-0 -0 -0 -0 -0 -0 -0 -0 -0 -0 -0 -0 -0 -0 -0 -0 -0 -0 -0 -0 -0 -0 -0 -0 -0 -0 -0 -0 -0 -0 -0 -0 -0 -0 -0 -0 -0 -0 -0 -0 -0 -0 -0
-0 -0 -0 -0 -0 -0 -0 -0 -0 -0 -0 -0 -0 -0 -0 -0 -0 -0 -0 -0 -0 -0 -0 -0 -0 -0 -0 -0 -0 -0 -0 -0 -0 -0 -0 -0 -0 -0 -0 -0 -0 -0 -0
-0 -0 -0 -0 -0 -0 -0 -0 -0 -0 -0 -0 -0 -0 -0 -0 -0 -0 -0 -0 -0 -0 -0 -0 -0 -0 -0 -0 -0 -0 -0 -0 -0 -0 -0 -0 -0 -0 -0 -0 -0 -0 -0
-0 -0 -0 -0 -0 -0 -0 -0 -0 -0 -0 -0 -0 -0 -0 -0 -0 -0 -0 -0 -0 -0 -0 -0 -0 -0 -0 -0 -0 -0 -0 -0 -0 -0 -0 -0 -0 -0 -0 -0 -0 -0 -0
Wind_Speed
20 19 18 7 8 9 9 10 9 11 16 15 15 10 9 9 11 10 10 14 15 10 11 11 13 12 8 9 10 11 10 10 6 2 7 6 13 10 8 12 11 11 6
19 17 15 13 12 4 7 10 12 11 12 14 16 15 11 12 9 10 13 9 12 11 10 10 12 9 12 11 9 11 9 9 7 10 5 5 7 14 13 13 11 10 9
19 17 15 14 14 12 7 6 8 13 15 14 14 12 15 13 11 8 9 10 10 10 9 10 11 11 12 10 12 10 10 8 9 7 6 5 5 8 11 8 11 12 11
15 15 14 15 13 13 12 9 5 8 9 12 12 12 13 10 9 9 8 8 7 10 12 10 12 10 12 11 11 13 11 11 10 8 7 7 6 8 9 11 8 8 9
15 16 19 15 15 13 15 14 12 8 4 7 10 9 11 10 5 1 4 8 7 5 3 1 3 7 13 12 10 12 13 12 11 11 9 7 7 9 11 7 8 8 7
16 16 15 16 15 14 13 15 14 14 12 6 10 11 11 8 9 4 4 3 5 4 3 3 3 7 8 5 6 5 12 14 13 9 9 10 11 10 9 11 10 6 5
16 16 17 15 14 15 12 14 14 14 13 12 11 12 12 12 13 14 10 6 7 7 5 4 3 4 6 5 17 18 17 17 5 10 10 9 7 8 8 9 9 5 5
15 17 18 18 18 16 13 12 12 11 13 12 13 13 13 12 16 14 13 11 10 10 9 8 6 6 8 6 9 14 13 15 9 8 9 6 5 4 5 4 7 9 9
17 16 16 15 15 15 16 14 11 11 15 15 14 11 15 13 16 15 12 11 11 12 11 10 9 9 11 12 10 13 13 12 19 25 26 24 21 19 8 9 8 11 4
16 15 15 14 14 14 13 14 12 10 13 12 17 14 22 14 20 20 13 8 11 8 10 12 20 13 17 14 11 9 13 10 9 11 10 17 17 18 21 11 2 8 7
13 13 14 14 14 13 12 12 11 12 13 15 15 13 17 18 19 24 21 10 8 9 9 9 10 23 24 24 21 12 11 9 12 11 11 10 12 12 11 11 12 7 4
12 13 14 14 12 11 13 12 12 11 12 12 11 11 11 14 22 27 27 23 17 11 11 9 12 24 25 26 19 22 21 13 10 10 11 11 10 10 10 11 14 13 12
11 13 13 14 13 12 14 13 10 11 11 11 10 8 8 9 9 23 26 24 22 12 9 16 20 22 24 20 25 22 14 9 10 11 11 9 8 8 9 10 11 15 15
13 13 12 13 14 15 11 11 11 11 10 10 10 9 10 10 9 9 9 7 11 10 12 11 11 14 18 14 13 13 10 9 9 9 9 7 6 7 8 7 8 8 9
12 11 11 10 11 12 14 14 12 14 15 10 10 10 9 10 11 16 13 8 8 8 7 7 8 9 10 10 10 10 9 8 9 8 8 7 7 7 7 7 7 8 9
11 10 10 9 8 8 8 10 22 23 24 23 22 14 10 17 18 18 16 14 12 6 6 7 8 8 9 8 8 8 8 9 8 7 7 7 6 6 7 7 7 8 8
12 11 8 9 8 8 8 8 7 9 20 23 21 20 18 15 16 16 15 16 13 7 7 8 8 7 8 7 7 7 8 7 7 7 7 7 6 6 6 6 6 6 7
10 12 9 8 8 7 7 7 6 7 7 8 13 15 17 17 16 12 9 7 8 10 8 7 7 7 7 7 6 6 6 6 7 6 7 6 6 5 6 6 5 5 5
9 8 7 7 7 7 6 6 6 6 6 6 5 7 9 10 14 15 12 7 7 7 7 7 7 6 6 6 6 6 6 6 6 6 6 6 5 5 6 6 6 6 4
7 11 8 7 6 7 6 6 6 6 6 6 7 8 7 5 6 7 7 7 6 6 6 6 6 6 5 5 5 4 5 5 5 5 5 5 5 5 5 5 4 4 4
7 7 8 6 7 7 6 6 6 6 6 5 6 8 10 6 5 6 6 6 6 5 5 5 5 5 5 4 4 4 4 4 5 5 5 5 4 4 4 4 4 4 3
7 7 6 6 6 7 7 6 6 5 5 5 5 5 7 5 5 5 5 5 5 5 5 5 5 5 5 5 4 4 4 4 4 4 4 3 4 4 4 4 4 3 3
7 7 7 6 6 5 5 5 5 5 4 5 5 5 5 5 5 5 5 5 5 4 5 4 4 4 4 4 5 4 4 4 4 3 3 3 3 4 3 3 3 3 2
7 7 7 6 6 6 5 5 4 3 5 4 4 4 4 4 4 4 4 4 4 4 4 4 4 5 4 4 4 5 5 4 3 4 2 2 4 2 3 3 3 2 2
7 6 6 6 6 6 6 5 5 5 5 4 4 3 3 3 2 2 2 2 2 2 3 2 3 4 5 5 6 7 7 7 6 4 2 1 3 2 2 1 1 2 1
6 6 5 5 5 6 6 6 6 6 5 5 5 4 4 4 4 2 0 1 1 1 2 1 3 3 4 4 5 6 5 5 5 5 2 2 2 2 3 2 2 2 2
Wind_Direction
335 333 337 291 218 206 190 170 172 169 168 165 165 153 165 186 187 185 181 195 202 209 205 204 205 205 207 211 214 217 220 209 199 169 192 173 174 187 194 207 189 196 123
333 337 343 345 351 194 197 181 177 175 171 174 165 164 153 195 184 192 196 190 195 198 196 202 212 212 216 215 215 218 207 205 197 178 167 164 173 196 204 187 185 100 94
337 349 354 358 4 354 305 189 185 176 183 189 197 154 154 199 202 193 195 187 197 199 199 208 214 214 219 217 210 210 205 197 191 175 158 165 171 185 195 96 108 102 93
332 357 360 0 2 358 0 2 178 201 188 184 181 142 152 168 176 178 188 192 211 226 224 230 237 233 223 220 215 208 197 187 182 169 165 165 154 168 141 132 122 135 114
353 360 7 355 16 360 23 16 5 21 135 124 109 100 102 105 66 73 185 201 205 193 91 56 28 320 281 230 213 201 192 189 179 172 161 166 162 163 161 157 129 120 116
6 8 358 8 12 18 31 35 19 31 20 60 94 99 87 67 15 319 219 122 80 118 123 73 33 6 12 103 109 147 195 182 178 176 175 175 173 172 154 146 140 144 145
7 8 7 11 12 22 24 44 37 37 28 20 64 80 71 61 45 49 55 95 91 76 66 53 64 51 43 54 85 72 57 50 75 180 176 178 161 172 147 136 167 143 120
11 13 10 12 18 17 23 30 46 43 38 29 34 50 74 57 51 64 76 81 79 68 62 55 56 53 47 50 84 79 62 51 30 67 78 68 64 96 123 128 122 101 94
16 14 12 14 20 22 23 20 27 47 52 40 36 26 59 57 57 61 76 77 70 61 53 56 54 59 55 78 79 91 82 64 56 69 78 70 62 58 66 115 128 132 108
14 16 16 18 23 25 25 29 28 46 58 52 54 26 48 53 54 62 65 71 70 62 56 57 59 64 67 68 81 85 82 66 66 57 51 52 50 48 44 47 79 138 123
12 22 23 23 24 23 28 29 34 42 53 53 52 40 39 45 49 61 64 65 68 66 58 57 63 75 75 74 74 70 80 89 75 73 67 62 58 49 50 44 51 50 75
21 28 26 28 29 26 30 34 33 37 44 48 51 52 41 44 52 61 64 67 71 73 65 62 70 74 77 77 76 77 79 76 68 67 66 58 63 61 59 60 63 64 57
31 32 31 33 30 33 36 30 33 37 39 42 46 50 52 42 49 60 64 65 67 70 69 72 73 71 70 68 71 69 68 67 76 77 72 64 61 74 75 77 81 84 72
41 38 37 37 42 32 32 42 37 32 39 38 40 44 45 41 35 45 54 60 70 75 76 71 70 72 68 64 64 60 58 63 74 78 82 77 70 68 66 71 82 68 76
40 38 37 40 41 58 50 35 44 43 41 41 45 40 40 39 39 48 46 49 58 54 75 77 66 65 71 69 69 70 73 73 76 84 86 82 76 79 77 76 75 82 95
32 37 29 38 36 35 46 71 54 50 48 50 48 50 55 52 48 51 54 55 49 33 72 71 69 66 70 73 77 77 72 77 79 82 88 91 93 92 92 85 89 96 101
30 27 35 35 35 36 36 27 33 78 66 42 40 44 48 49 50 55 58 58 49 64 67 65 63 63 68 72 76 79 81 76 80 84 87 87 89 93 94 91 97 101 99
35 37 33 31 29 29 31 36 34 24 27 36 50 39 40 41 43 40 31 45 54 53 59 64 68 65 67 71 75 80 82 85 83 87 89 89 94 100 103 97 97 105 108
22 23 25 32 32 23 25 34 27 29 35 33 30 46 40 50 49 47 45 53 62 63 61 66 65 64 70 75 72 70 68 68 80 90 86 86 88 97 92 89 81 71 91
29 29 21 21 22 22 25 27 31 32 33 36 35 18 5 29 41 45 44 48 59 66 70 74 70 70 68 73 75 82 95 91 93 88 84 86 86 96 102 101 99 95 78
8 15 360 15 17 14 15 20 21 22 27 34 47 30 3 16 36 42 47 42 44 53 55 62 67 68 71 63 67 68 65 72 75 83 86 85 91 94 89 94 102 92 102
5 2 4 5 2 7 356 7 10 14 18 19 29 54 1 27 32 36 42 40 34 32 29 39 49 48 46 52 55 67 69 76 85 90 90 97 108 106 102 101 105 106 131
8 1 358 7 352 349 346 351 356 360 6 6 7 14 17 24 24 31 37 30 34 35 22 34 54 61 64 52 46 48 67 71 62 42 104 121 122 119 127 121 120 135 122
8 6 1 0 13 342 353 341 346 359 339 344 353 360 9 13 28 50 31 38 41 49 51 51 42 45 71 65 70 69 64 52 63 79 19 95 106 153 119 130 122 87 142
12 5 4 360 355 350 342 337 332 332 329 328 332 335 345 335 342 356 40 52 32 32 68 37 54 98 82 62 60 63 62 49 46 13 94 83 89 121 100 133 76 122 98
8 4 360 353 352 344 340 332 328 325 323 325 319 315 318 313 308 308 355 300 288 336 330 123 131 82 134 131 115 95 92 74 63 25 355 112 171 161 187 162 206 215 171